Flag for Jamaica Weather past 2 weeks in May Pen, Jamaica

Now
82 °F

Passing clouds.


Feels Like: 87 °F
Forecast: 73 / 90 °F
Wind: 8 mph from Northwest

Location: Kingston / Norman Manley

Current Time: Oct 20, 2014 at 6:56:51 AM

Latest Report: Oct 20, 2014 at 6:00 AM


Visibility: N/A

Pressure: 29.89 "Hg

Humidity: 70%

Dew point: 72 °F

Location of May PenLocation

Historic Weather in May Pen — Graph

°F

May Pen temperature yesterday

Maximum temperature yesterday: 91 °F (at 1:00 PM)
Minimum temperature yesterday: 81 °F (at 1:00 AM)
Average temperature yesterday: 85 °F

Past Weeks' High & Low Weather Summary

 TemperatureHumidityPressure
High93 °F (Oct 6, 2:00 PM)89% (Oct 11, 7:00 AM)29.98 "Hg (Oct 11, 7:00 AM)
Low77 °F (Oct 7, 6:00 AM)36% (Oct 7, 4:00 PM)29.77 "Hg (Oct 9, 3:00 PM)
Average84 °F71%29.89 "Hg
* Reported Oct 5 5:00 AM — Oct 20 5:00 AM, May Pen, Weather by CustomWeather, © 2014

Note: Actual official high and low records may vary slightly from our data, if they occured in-between our weather recording intervals... More about our weather records

Advertising

May Pen weather history for previous 24 hours

 ConditionsComfort  
Time TempWeatherWind HumidityBarometerVisibility
5:00 AM
Oct 20
82 °FPassing clouds.7 mph70%29.89 "HgN/A
4:00 AM82 °FPassing clouds.7 mph70%29.89 "HgN/A
3:00 AM82 °FPassing clouds.6 mph74%29.86 "HgN/A
2:00 AM82 °FThundershowers. Passing clouds.2 mph79%29.89 "HgN/A
1:00 AM81 °FWarm.1 mph84%29.92 "HgN/A
12:00 AM82 °FPassing clouds.5 mph79%29.92 "HgN/A
10:00 PM
Oct 19
84 °FPassing clouds.7 mph74%29.95 "HgN/A
9:00 PM84 °FPassing clouds.9 mph74%29.95 "HgN/A
8:00 PM84 °FPassing clouds.7 mph74%29.92 "HgN/A
7:00 PM86 °FThundershowers. Passing clouds.8 mph62%29.89 "HgN/A
6:00 PM86 °FThundershowers. Passing clouds.13 mph70%29.86 "HgN/A
5:00 PM86 °FPassing clouds.16 mph70%29.86 "HgN/A
4:00 PM88 °FPassing clouds.20 mph66%29.83 "HgN/A
3:00 PM88 °FPassing clouds.18 mph70%29.83 "HgN/A
2:00 PM90 °FThunderstorms. Passing clouds.22 mph67%29.83 "HgN/A
1:00 PM91 °FPassing clouds.18 mph63%29.86 "HgN/A
12:00 PM88 °FPassing clouds.17 mph70%29.89 "HgN/A
11:00 AM90 °FPassing clouds.15 mph63%29.92 "HgN/A
10:00 AM88 °FPassing clouds.5 mph62%29.95 "HgN/A
9:00 AM88 °FPassing clouds.3 mph59%29.95 "HgN/A
8:00 AM86 °FPassing clouds.5 mph62%29.95 "HgN/A
7:00 AM81 °FScattered clouds.7 mph74%29.92 "HgN/A
6:00 AM82 °FPassing clouds.6 mph66%29.89 "HgN/A
Weather by CustomWeather, © 2014

See weather overviewHow to use our weather pages